Probability
0 0 0 0 0 0 0 0 0 0 0 0 0 0 0 0 0 0 0 0 0 0 0 0 0 0 0 0 0 0 0 0 0 0 0 0 0 0 0 0 0 0 0 0 0 0 0 0 0
0 0 0 0 0 0 0 0 0 0 0 0 0 0 0 0 0 0 0 0 0 0 0 0 0 0 0 0 0 0 0 0 0 0 0 0 0 0 0 0 0 0 0 0 0 0 0 0 0
0 0 0 0 0 0 0 0 0 0 0 0 0 0 0 0 0 0 0 0 0 0 0 0 0 0 0 0 0 0 0 0 0 0 0 0 0 0 0 0 0 0 0 0 0 0 0 0 0
0 0 0 0 0 0 0 0 0 0 0 0 0 0 0 0 0 0 0 0 0 0 0 0 0 0 0 0 0 0 0 0 0 0 0 0 0 0 0 0 0 0 0 0 0 0 0 0 0
0 0 0 0 0 0 0 0 0 0 0 0 0 0 0 0 0 0 0 0 0 0 0 0 0 0 0 0 0 0 0 0 0 0 0 0 0 0 0 0 0 0 0 0 0 0 0 0 0
0 0 0 0 0 0 0 0 0 0 0 0 0 0 0 0 0 0 0 0 0 0 0 0 0 0 0 0 0 0 0 0 0 0 0 0 0 0 0 0 0 0 0 0 0 0 0 0 0
0 0 0 0 0 0 0 0 0 0 0 0 0 0 0 0 0 0 0 0 0 0 0 0 0 0 0 0 0 0 0 0 0 0 0 0 0 0 0 0 0 0 0 0 0 0 0 0 0
0 0 0 0 0 0 0 0 0 0 0 0 0 0 0 0 0 0 0 0 0 0 0 0 0 0 0 0 0 0 0 0 0 0 0 0 0 0 0 0 0 0 0 0 0 0 0 0 0
0 0 0 0 0 0 0 0 0 0 0 0 0 0 0 0 0 0 0 0 0 0 0 0 0 0 0 0 0 0 0 0 0 0 0 0 0 0 0 0 0 0 0 0 0 0 0 0 0
0 0 0 0 0 0 0 0 0 0 0 0 0 0 0 0 0 0 0 0 0 0 0 0 0 0 0 0 0 0 0 0 0 0 0 0 0 0 0 0 0 0 0 0 0 0 0 0 0
0 0 0 0 0 0 0 0 0 0 0 0 0 0 0 0 0 0 0 0 0 0 0 0 0 0 0 0 0 0 0 0 0 0 0 0 0 0 0 0 0 0 0 0 0 0 0 0 0
0 0 0 0 0 0 0 0 0 0 0 0 0 0 0 0 0 0 0 0 0 0 0 0 0 0 0 0 0 0 0 0 0 0 0 0 0 0 0 0 0 0 0 0 0 0 0 0 0
0 0 0 0 0 0 0 0 0 0 0 0 0 0 0 0 0 0 1 1 1 0 0 0 0 0 0 0 0 0 0 0 0 0 0 0 0 0 0 0 0 0 0 0 0 0 0 0 0
0 0 0 0 0 0 0 0 0 0 0 0 0 0 0 0 0 0 1 2 1 0 0 2 2 2 0 0 0 0 0 0 0 0 0 0 0 0 0 0 0 0 0 0 0 0 0 0 0
0 0 0 0 0 0 0 0 0 0 0 0 0 0 0 0 0 0 1 1 0 0 0 2 5 5 4 4 3 2 1 1 0 0 0 0 0 0 0 0 0 0 0 0 0 0 0 0 0
0 0 0 0 0 0 0 0 0 0 0 0 0 0 0 0 0 0 0 0 0 0 1 3 5 10 14 17 16 12 7 3 1 1 1 1 0 0 0 0 0 0 0 0 0 0 0 0 0
0 0 0 0 0 0 0 0 0 0 0 0 0 0 0 0 0 0 0 0 0 0 1 2 6 13 23 33 38 32 21 11 6 3 3 3 1 1 2 2 1 0 0 0 0 0 0 0 0
0 0 0 0 0 0 0 0 0 0 0 0 0 0 0 0 0 0 0 0 0 0 0 1 5 12 24 40 52 52 41 29 19 12 7 5 4 3 5 6 5 2 0 0 0 0 0 0 0
0 0 0 0 0 0 0 0 0 0 0 0 0 0 0 0 0 0 0 0 0 0 0 0 2 5 15 31 48 57 57 49 40 29 18 11 8 6 6 8 8 5 2 1 0 0 0 0 0
0 0 0 0 0 0 0 0 0 0 0 0 0 0 0 0 0 0 0 0 0 0 0 0 0 1 5 16 32 48 58 61 59 51 39 28 20 14 10 8 8 7 4 2 1 0 0 0 0
0 0 0 0 0 0 0 0 0 0 0 0 0 0 0 0 0 0 0 0 0 0 0 0 0 0 0 5 16 32 48 57 63 65 61 52 39 28 19 12 8 6 4 3 1 0 0 0 0
0 0 0 0 0 0 0 0 0 0 0 0 0 0 0 0 0 0 0 0 0 0 0 0 0 0 0 1 6 16 28 38 47 58 64 63 56 45 33 21 13 8 5 2 1 0 0 0 0
0 0 0 0 0 0 0 0 0 0 0 0 0 0 0 0 0 0 0 0 0 0 0 0 0 0 0 0 2 5 11 17 26 39 50 58 62 58 46 33 22 14 8 4 3 1 0 0 0
0 0 0 0 0 0 0 0 0 0 0 0 0 0 0 0 0 0 0 0 0 0 0 0 0 0 0 0 0 1 2 6 12 22 33 45 56 61 54 42 31 22 14 9 6 4 2 0 0
0 0 0 0 0 0 0 0 0 0 0 0 0 0 0 0 0 0 0 0 0 0 0 0 0 0 0 0 0 0 0 2 5 10 18 28 40 48 50 46 39 30 21 14 9 6 4 1 0
0 0 0 0 0 0 0 0 0 0 0 0 0 0 0 0 0 0 0 0 0 0 0 0 0 0 0 0 0 0 0 0 1 4 8 14 22 30 36 41 41 33 24 18 12 7 5 2 0
0 0 0 0 0 0 0 0 0 0 0 0 0 0 0 0 0 0 0 0 0 0 0 0 0 0 0 0 0 0 0 0 0 1 3 6 11 16 23 31 35 33 26 19 12 7 4 2 1
0 0 0 0 0 0 0 0 0 0 0 0 0 0 0 0 0 0 0 0 0 0 0 0 0 0 0 0 0 0 0 0 0 0 1 4 6 9 14 19 27 29 23 16 11 7 4 2 1
0 0 0 0 0 0 0 0 0 0 0 0 0 0 0 0 0 0 0 0 0 0 0 0 0 0 0 0 0 0 0 0 0 0 1 3 4 6 7 9 15 20 16 11 7 4 2 1 0
0 0 0 0 0 0 0 0 0 0 0 0 0 0 0 0 0 0 0 0 0 0 0 0 0 0 0 0 0 0 0 0 0 0 1 2 3 4 4 4 7 9 9 7 4 2 1 0 0
Wind_Speed
3 2 3 3 4 5 7 3 2 2 2 1 3 5 5 4 3 2 4 7 10 15 16 16 13 12 13 14 15 15 14 13 12 11 10 8 7 6 5 7 8 9 11 12 13 13 12 12 11
4 3 4 4 6 8 6 5 6 2 3 5 4 6 6 3 3 3 4 9 12 14 14 15 14 13 13 14 16 15 14 13 12 11 10 8 7 7 8 9 10 11 12 13 13 12 12 11 10
4 4 5 5 8 10 4 3 4 1 3 3 2 2 3 3 4 3 6 11 13 13 13 14 13 13 13 14 15 15 14 13 12 11 9 8 8 8 9 11 12 13 13 12 12 11 11 10 9
6 5 5 9 14 13 7 3 4 2 1 2 4 2 0 3 4 4 10 13 14 13 13 14 12 12 13 14 14 14 14 13 12 11 9 8 8 9 10 11 11 11 11 11 11 10 9 8 8
6 7 10 13 17 11 9 5 3 4 4 4 6 3 1 4 4 6 11 13 13 13 12 14 11 12 12 13 13 13 13 13 12 11 10 9 8 9 10 9 10 10 10 10 10 9 8 7 7
8 8 13 16 18 13 10 8 7 9 6 4 4 3 3 5 4 6 11 11 12 12 11 12 12 10 10 11 11 12 13 13 12 11 10 9 9 9 9 8 8 8 9 9 9 8 7 6 6
11 12 17 19 18 16 12 8 10 10 9 5 3 3 4 6 4 5 9 9 10 11 11 11 12 11 10 8 8 9 11 12 11 11 10 8 8 9 9 8 8 8 8 8 8 7 7 6 5
8 9 18 19 18 17 10 8 7 9 7 2 3 5 3 5 5 6 7 7 8 9 10 10 10 10 10 10 8 8 9 10 11 10 9 9 8 8 8 8 7 7 7 7 7 7 7 6 5
7 11 17 18 14 12 9 10 6 3 4 3 2 2 4 3 7 8 7 6 7 8 9 9 9 9 8 8 9 9 9 10 11 10 10 9 9 9 8 7 5 5 6 7 7 8 8 7 7
11 14 17 9 8 8 11 10 7 7 7 6 4 1 2 6 8 9 8 9 9 9 9 8 9 9 8 6 7 8 9 10 11 10 11 9 7 6 6 8 4 4 5 6 8 9 8 5 5
11 13 9 5 5 7 10 8 6 7 7 5 3 1 3 6 7 8 8 9 9 9 9 9 9 9 8 6 6 5 6 7 10 11 11 8 7 6 6 6 7 7 7 7 8 8 5 4 3
10 8 6 6 5 6 7 7 6 6 3 5 3 1 3 6 8 9 9 8 8 9 10 10 10 9 9 8 6 7 6 6 7 9 11 9 6 7 6 5 6 6 6 6 6 4 5 5 5
9 8 6 4 5 4 4 5 4 5 4 2 2 2 3 5 7 8 8 9 9 10 10 11 11 10 9 9 7 7 8 8 9 9 10 11 8 8 8 6 6 7 6 7 6 6 6 6 5
9 7 7 5 5 5 6 7 6 7 4 5 6 6 5 5 6 7 9 10 10 11 11 11 13 12 11 10 9 8 8 8 9 9 11 13 10 9 8 8 8 8 7 7 7 7 6 5 5
9 8 7 7 7 5 5 11 13 11 8 10 10 9 7 7 7 9 9 9 10 11 11 12 13 13 14 13 12 9 9 9 9 9 12 14 12 11 10 9 9 9 8 9 7 8 6 5 5
10 11 11 9 10 8 8 12 7 5 7 10 10 10 9 9 9 9 8 9 9 10 11 12 10 13 15 13 12 9 9 10 10 10 10 14 15 14 11 10 10 10 9 8 8 7 7 6 6
11 14 16 9 8 8 12 10 5 4 5 8 8 8 8 9 9 8 7 8 9 10 10 11 12 13 14 14 11 11 10 10 10 10 10 13 16 16 13 11 10 11 9 9 9 8 8 8 7
16 13 13 13 6 8 11 10 7 6 7 9 9 9 8 8 8 7 7 7 7 8 9 10 11 12 13 11 10 9 10 10 10 10 11 14 13 16 14 11 13 12 10 10 10 11 9 7 7
12 11 10 8 4 6 9 10 10 9 10 11 10 8 7 6 5 5 5 5 5 5 6 8 9 10 10 9 10 11 11 11 11 11 14 15 14 15 14 12 13 13 12 13 14 11 11 8 7
12 11 9 5 3 3 4 9 8 5 6 5 4 3 2 1 2 3 3 3 4 4 5 6 7 8 9 9 9 10 11 10 11 10 13 15 16 15 13 16 13 13 12 15 15 14 10 8 9
10 9 8 6 5 3 4 6 4 4 4 4 4 4 4 4 4 5 5 5 5 5 5 5 7 7 8 9 8 8 8 9 9 12 12 15 17 16 15 16 15 13 13 13 16 16 16 11 11
8 5 7 6 5 3 3 3 6 6 7 7 7 6 6 5 5 6 6 7 6 6 6 6 6 6 6 7 8 11 11 12 14 12 12 13 16 16 16 16 16 14 13 14 15 16 15 14 11
6 6 5 3 2 2 4 5 6 7 8 8 6 5 5 6 6 6 7 7 7 7 6 6 6 5 5 5 7 9 11 11 10 11 14 14 13 15 15 16 15 14 13 15 15 15 16 14 14
11 7 6 3 2 6 5 7 6 8 9 9 5 4 4 5 5 6 6 7 7 7 7 7 7 6 6 5 5 8 10 12 12 13 12 12 10 11 15 15 14 14 13 14 15 14 17 15 15
5 6 4 5 6 5 4 5 4 7 7 6 3 2 4 5 6 7 8 8 8 9 9 8 9 8 8 7 6 7 8 10 12 12 12 12 10 10 13 13 14 13 13 13 13 13 14 15 15
6 5 4 5 5 4 5 7 3 5 4 4 3 3 4 4 5 6 7 8 8 9 9 9 10 10 9 9 8 7 8 7 8 10 10 11 10 10 11 12 13 13 13 11 10 9 10 9 11
7 5 1 1 1 3 5 4 3 4 6 7 4 2 3 4 5 6 7 7 8 9 9 10 10 10 10 9 9 9 8 8 8 9 9 9 9 8 10 10 11 11 10 10 9 7 8 7 7
0 5 4 4 4 5 4 5 7 13 11 7 2 3 4 4 5 6 6 7 8 8 8 9 9 9 9 9 9 7 8 8 8 8 8 8 8 8 8 8 8 8 8 8 8 7 7 8 7
6 4 3 3 3 4 3 3 4 12 10 5 1 4 5 5 6 6 6 7 7 8 8 8 9 9 9 9 9 8 8 8 8 6 6 6 5 5 5 5 5 5 6 7 8 8 9 9 8
3 5 6 4 4 3 3 2 4 7 6 2 4 5 4 4 4 5 6 6 7 8 8 8 9 9 9 9 8 8 8 8 8 7 7 6 5 4 2 1 1 3 5 7 8 9 10 10 10
Wind_Direction
258 271 262 245 234 233 240 214 217 183 184 345 304 267 262 258 260 21 62 153 144 149 148 150 149 152 154 152 144 139 137 136 133 130 126 123 119 113 111 121 128 129 120 112 105 103 101 100 99
241 230 224 227 237 230 221 213 210 192 359 324 273 244 244 244 2 48 132 149 152 150 150 154 147 154 154 149 145 143 141 139 136 131 127 125 121 112 108 106 110 114 110 106 105 104 105 104 102
208 238 219 216 229 233 221 182 194 117 339 323 321 248 286 351 21 69 129 150 154 152 153 143 150 154 153 149 148 148 146 143 139 134 130 129 126 116 108 100 101 103 103 104 105 108 109 106 102
199 188 212 227 228 229 234 111 132 175 41 359 334 284 163 41 5 79 138 154 155 155 154 146 154 152 150 150 151 152 151 147 143 139 135 136 134 123 110 101 100 103 105 107 108 110 111 108 103
213 204 212 225 231 226 230 227 216 268 309 336 328 316 90 67 43 124 150 157 158 157 155 152 153 152 152 155 158 159 157 151 147 145 143 144 141 129 120 112 109 110 112 114 115 116 114 111 106
195 209 220 225 227 223 226 225 238 258 275 296 302 291 88 69 81 138 155 162 161 158 158 154 151 150 153 159 163 167 162 156 153 152 151 149 145 137 131 129 127 126 125 125 125 123 119 114 110
207 209 224 228 231 225 223 214 233 251 257 265 288 265 120 84 81 146 159 162 163 164 165 163 165 162 159 164 170 173 166 160 157 157 154 145 140 143 145 145 145 140 137 133 131 127 122 119 118
224 218 225 227 230 230 217 205 231 240 252 242 245 253 99 76 120 145 152 162 171 174 174 172 174 176 178 179 177 179 168 163 160 158 151 141 142 150 153 164 155 152 144 138 133 128 122 117 117
206 218 219 216 224 224 195 201 197 209 218 196 223 329 12 106 144 151 155 168 179 187 185 182 182 182 186 187 175 186 177 170 167 166 155 163 175 170 172 167 149 163 156 150 143 131 124 122 118
201 219 220 213 215 198 183 195 181 182 192 194 194 103 48 151 167 175 180 182 186 191 195 194 193 190 192 188 188 196 192 185 193 188 179 192 188 179 177 145 176 177 162 158 146 135 146 181 151
205 223 210 181 183 177 174 180 182 198 194 189 179 89 116 169 186 195 198 196 197 198 199 206 206 203 200 196 200 198 197 196 202 200 193 196 191 181 189 177 180 189 185 178 152 171 183 187 167
205 206 197 176 160 167 170 171 184 209 161 121 95 66 156 182 197 206 210 209 207 208 208 210 213 212 212 212 207 207 204 200 203 203 202 200 198 198 195 198 192 193 194 190 192 202 182 187 186
197 185 177 155 161 167 175 199 216 219 192 189 224 229 214 206 208 212 220 220 218 217 215 215 215 216 214 218 221 218 215 210 207 207 207 207 205 205 202 205 201 205 202 196 203 205 193 194 191
187 173 175 183 183 189 218 235 238 237 222 225 231 236 234 234 233 230 226 229 227 225 221 215 215 216 216 217 220 223 222 218 220 212 212 212 213 212 209 211 208 208 206 206 207 208 200 199 198
180 188 199 209 207 200 216 239 234 244 241 242 241 244 252 256 252 248 246 243 241 237 230 223 219 217 217 219 221 225 226 224 222 220 217 215 216 216 213 217 211 210 208 206 209 206 206 201 198
180 200 216 209 211 204 217 245 218 226 233 242 246 249 255 260 260 261 261 256 254 249 241 235 224 223 222 222 221 221 224 226 227 224 222 219 219 217 216 218 216 210 204 202 201 198 200 199 202
185 205 209 194 201 202 217 247 217 193 232 245 247 252 258 266 269 271 270 264 260 255 248 242 234 231 229 226 223 222 224 226 230 229 226 222 220 218 217 219 216 209 205 204 201 203 205 204 202
187 193 197 196 174 201 218 235 230 234 251 260 262 263 265 269 278 290 292 283 272 264 258 251 243 239 238 232 227 224 225 228 229 230 230 228 223 220 220 219 217 209 206 206 203 201 204 209 194
176 182 182 177 150 209 225 243 252 259 258 260 262 265 266 274 291 306 308 301 287 273 262 255 252 245 241 234 227 224 225 226 227 228 230 230 228 222 220 221 217 210 209 208 206 200 200 199 183
172 178 167 144 144 230 240 256 262 270 263 267 265 262 273 315 1 5 351 340 318 299 286 273 261 256 248 241 239 237 235 233 231 228 230 230 228 225 219 221 219 212 213 211 207 201 200 192 188
174 183 169 150 146 153 271 236 168 112 112 112 109 100 80 45 29 26 25 22 7 349 326 301 285 274 264 258 249 245 242 240 236 233 230 228 226 225 221 222 223 216 214 214 209 203 203 198 198
163 162 154 153 193 177 278 225 145 130 122 115 105 88 67 49 37 30 23 21 14 2 346 326 310 291 278 266 251 243 238 237 236 237 237 234 229 226 224 223 224 221 217 218 213 209 211 207 198
124 113 117 129 183 232 212 245 158 159 149 135 110 78 52 35 26 24 17 8 4 359 351 343 336 324 307 280 260 253 248 249 251 249 247 243 236 229 224 222 223 223 220 221 218 212 213 213 206
123 103 86 92 214 237 202 225 185 176 164 151 129 77 41 26 17 15 11 3 1 358 353 346 340 338 334 315 284 261 258 256 255 252 251 248 243 235 228 223 223 223 222 221 221 215 215 216 217
148 153 164 188 207 221 143 228 226 150 158 160 142 47 10 4 5 4 2 357 353 351 348 341 338 333 333 325 311 291 274 267 261 258 255 252 249 241 233 224 225 224 224 223 221 218 216 217 219
171 201 224 211 203 162 176 231 159 145 172 200 234 288 320 348 1 0 357 351 347 345 343 340 335 330 330 326 320 308 292 276 268 264 262 260 256 253 246 234 228 227 224 220 216 216 215 212 216
157 190 312 346 54 238 202 224 235 188 191 200 213 270 334 351 357 355 354 352 348 345 344 339 333 330 331 329 323 316 310 295 284 278 271 267 265 266 258 245 233 226 220 211 202 205 202 197 198
124 147 169 199 220 228 198 211 179 171 175 180 207 334 348 351 355 357 356 354 350 347 345 344 342 337 335 333 331 326 321 314 304 293 283 276 274 270 263 253 240 223 211 197 187 183 180 177 171
156 170 189 190 263 259 217 149 138 164 165 173 318 341 342 350 355 356 355 354 353 354 355 355 354 350 346 343 340 338 337 333 327 322 315 308 300 289 271 255 232 207 189 178 170 167 163 161 153
223 197 184 205 207 234 275 119 119 170 172 227 313 334 343 355 358 358 358 360 2 2 1 1 359 358 355 352 354 358 356 356 359 357 354 351 346 346 337 320 162 152 154 156 156 153 151 149 146